Theta_e
347 344 337 332 332 331 330 334 342 346 346 346 346 344 334 324 328 334 338 340 340 340 336 327 327 326 326 326 327 328 328 330 336 341 341 342 343 341 339 338 335 335 336
346 342 337 333 332 331 329 330 332 342 346 346 345 342 327 326 334 336 336 334 332 331 333 327 330 330 330 332 331 335 339 337 333 335 337 344 338 336 337 333 331 332 339
345 341 337 333 333 331 330 329 328 330 335 341 340 332 325 333 336 334 334 335 331 328 329 328 333 334 335 338 343 345 344 345 346 342 334 331 334 334 333 331 329 329 332
344 342 337 333 333 332 332 330 327 328 331 331 330 327 331 336 337 336 336 336 332 325 325 328 334 335 335 338 338 340 342 341 342 344 345 336 337 336 335 334 329 327 328
344 342 338 333 334 333 332 332 328 328 331 330 329 330 334 336 336 335 336 337 330 325 325 326 332 332 333 336 339 340 339 338 339 340 341 342 334 337 337 333 330 327 327
345 343 339 334 334 334 333 333 331 328 330 327 327 330 333 334 335 334 337 336 331 326 326 326 327 331 334 338 338 338 337 337 337 340 341 343 338 335 336 334 331 329 328
346 344 340 335 334 335 333 333 333 329 329 328 326 327 330 332 335 338 337 329 327 327 328 327 328 330 332 337 337 337 336 335 334 337 341 342 341 337 335 334 333 330 330
346 344 341 337 334 335 335 333 333 333 330 330 330 332 333 333 338 338 331 326 323 326 329 328 328 331 334 336 336 335 335 332 331 331 335 342 343 342 337 335 335 332 331
349 347 344 343 338 336 336 336 333 333 333 331 331 332 336 338 340 337 330 328 324 324 328 329 328 328 329 331 332 330 328 327 327 327 326 329 341 342 342 337 335 334 334
349 349 348 348 345 340 337 337 335 333 334 334 333 333 334 336 337 336 332 330 327 324 325 326 328 328 327 327 326 326 326 326 325 324 325 323 328 332 335 339 337 335 334
351 352 352 354 355 347 343 339 338 335 334 335 335 334 333 333 333 334 332 330 330 327 324 323 323 324 325 325 325 324 323 322 324 329 329 326 326 327 329 330 335 335 331
350 351 351 352 351 350 346 344 341 340 335 334 336 336 335 335 333 333 332 330 330 330 327 324 322 322 322 321 320 320 319 319 330 332 332 332 332 332 331 329 329 335 331
350 349 351 348 348 346 344 344 342 343 339 335 336 337 338 336 335 334 333 331 329 330 329 329 328 325 324 323 323 324 325 326 332 334 334 334 334 335 332 330 332 331 330
349 350 349 348 348 348 346 344 343 343 343 340 337 337 338 338 336 334 332 331 330 328 329 333 335 335 330 325 328 334 333 333 335 337 341 344 344 343 342 336 337 336 332
347 348 350 347 348 352 348 345 343 343 344 343 341 339 339 339 336 333 331 330 330 329 333 338 340 340 337 333 332 336 338 338 339 342 343 344 340 340 344 344 342 335 333
345 346 346 346 345 346 347 344 343 343 342 342 341 339 339 337 336 333 330 328 330 332 338 340 341 341 342 341 338 340 340 340 342 344 344 343 341 341 343 343 343 344 344
345 344 344 342 342 342 341 341 339 339 340 339 338 338 338 337 334 332 329 328 336 340 341 341 341 342 345 343 342 345 345 344 344 345 345 343 338 338 338 338 337 338 340
345 346 346 343 342 340 337 336 337 335 336 335 334 333 332 332 329 327 327 327 331 340 342 343 342 342 346 345 344 344 343 343 345 344 341 338 336 334 331 330 329 329 332
343 344 345 344 342 338 337 335 335 332 335 336 333 331 330 330 329 329 330 328 330 337 340 345 343 344 346 346 345 344 339 343 342 342 341 337 335 333 330 328 330 331 330
340 342 345 344 343 342 342 341 340 336 341 341 339 338 334 334 333 333 334 335 334 333 337 347 347 347 347 344 341 339 337 342 342 340 337 335 333 330 327 324 324 327 327
338 338 343 343 344 343 344 344 344 345 344 343 344 345 343 340 340 341 343 342 342 341 337 347 347 346 344 343 339 337 335 336 339 337 335 333 331 327 325 324 326 325 325
337 337 338 343 341 342 342 344 344 345 348 350 348 348 348 346 345 344 344 345 345 345 343 343 346 345 343 342 339 336 337 333 331 333 332 331 329 324 326 324 325 325 327
339 339 341 339 341 342 343 343 344 347 348 349 349 349 349 351 351 349 348 348 347 346 345 345 345 344 342 342 340 337 334 334 325 332 331 331 327 325 325 323 323 322 323
334 334 340 342 341 340 342 344 344 342 344 346 347 348 348 348 347 349 349 347 345 347 346 345 344 344 343 341 340 340 335 329 330 329 329 329 328 326 323 321 322 321 318
329 329 328 336 339 339 339 339 341 338 341 344 344 344 348 347 349 348 349 347 346 346 345 344 344 342 343 340 340 336 336 333 329 327 331 326 326 325 325 320 321 318 317
327 329 330 336 337 337 336 336 336 336 337 338 343 345 345 345 344 341 344 345 344 345 342 343 343 342 341 340 338 339 335 331 327 326 326 324 323 322 318 317 320 318 317
Wind_Speed
23 30 29 29 27 26 26 27 29 32 32 31 29 26 25 27 28 25 22 19 16 14 14 14 15 16 17 18 19 18 17 15 13 12 12 10 9 8 9 10 11 12 11
34 33 30 29 27 26 25 26 27 28 29 29 27 25 26 28 27 24 21 18 16 15 14 15 16 16 17 17 16 14 14 13 12 10 9 11 7 7 7 8 9 10 9
37 34 32 29 28 26 24 23 24 25 27 27 25 25 27 26 24 22 19 17 15 15 14 15 15 15 15 14 13 12 11 9 8 7 7 6 6 6 7 7 8 9 8
39 35 33 30 28 26 24 22 21 22 24 25 25 25 25 24 21 18 16 14 14 14 14 15 14 14 13 12 11 10 9 8 6 3 1 3 4 4 5 5 6 7 7
39 35 32 30 28 27 24 22 21 21 22 23 24 24 23 21 19 16 14 13 12 13 13 15 14 12 11 10 8 7 7 6 5 3 1 3 2 3 4 3 4 5 6
37 34 31 29 27 26 25 22 21 20 20 21 22 23 22 19 16 14 13 11 10 11 12 14 14 12 10 8 7 5 4 4 4 4 2 4 2 1 2 2 2 3 4
35 32 30 28 27 24 24 22 21 20 19 19 20 21 19 18 16 13 10 9 9 9 10 11 12 11 10 9 7 5 2 1 2 4 2 3 3 2 3 3 3 2 1
36 32 28 26 24 23 22 20 19 18 18 17 17 18 17 17 14 11 9 8 9 9 8 8 9 9 8 8 7 5 3 3 3 2 2 3 6 5 6 5 6 5 3
31 29 26 22 21 21 20 20 19 17 16 15 16 15 15 14 13 11 9 8 7 7 7 6 6 7 7 7 6 5 5 5 6 5 4 4 6 9 9 8 8 8 7
27 24 24 21 20 19 19 18 18 17 15 13 12 13 13 12 11 9 8 7 6 6 7 6 6 5 5 5 5 5 6 6 6 7 7 7 8 8 9 10 10 10 11
21 18 17 15 15 18 17 16 16 15 15 13 12 11 12 13 13 11 10 8 7 6 6 6 6 6 6 7 6 6 7 7 6 6 6 4 7 10 12 11 11 11 12
16 16 18 17 15 16 16 15 15 15 15 14 13 12 12 12 13 12 11 10 9 8 6 6 6 7 8 8 8 7 8 7 7 5 3 4 7 10 12 13 12 12 13
21 16 16 19 19 21 22 20 19 17 16 15 15 14 13 13 14 14 13 12 11 10 9 8 8 9 10 11 9 8 7 6 7 7 7 8 10 12 12 12 6 9 13
21 20 18 18 19 20 21 24 23 22 20 20 19 18 17 16 16 16 16 15 13 13 12 11 11 11 12 12 10 8 7 7 8 9 8 8 10 11 11 10 9 11 14
23 18 17 18 18 18 20 23 22 24 24 22 20 19 19 19 19 18 18 17 16 14 14 13 11 10 11 12 11 11 11 10 10 9 12 12 11 11 11 11 12 14 16
21 20 17 17 16 17 20 20 21 21 21 20 20 21 21 21 20 19 19 18 17 16 15 14 14 13 14 15 13 14 16 12 12 11 9 9 10 10 11 12 12 15 17
21 22 22 22 22 22 22 21 21 20 20 22 22 21 21 21 21 20 19 19 17 16 16 16 15 16 16 14 16 10 8 10 11 12 11 10 10 9 8 7 8 9 10
29 26 24 28 27 26 27 27 26 21 24 25 24 21 22 23 23 21 22 21 19 18 16 17 16 17 17 16 15 12 9 10 10 7 8 8 8 6 6 8 9 8 9
25 26 28 25 32 23 33 31 32 26 30 33 30 23 21 23 25 22 21 22 20 21 21 18 18 17 17 16 17 17 15 12 10 10 11 9 7 8 7 6 7 6 6
27 23 25 32 29 31 28 28 33 30 31 28 28 19 18 20 24 18 19 23 21 22 23 20 20 18 18 17 17 19 17 15 15 13 12 10 7 6 6 7 6 4 6
19 25 30 27 25 25 23 28 30 21 25 24 24 17 18 20 20 19 21 22 21 22 25 21 17 18 19 19 14 11 18 18 15 15 15 12 7 5 5 8 7 7 7
17 24 29 33 32 34 33 32 18 19 17 18 19 20 18 20 21 26 26 25 25 27 28 24 20 20 20 19 9 4 3 5 9 13 14 10 5 5 6 6 5 7 6
22 25 32 36 35 32 31 26 22 13 13 11 15 14 15 17 17 20 20 18 22 24 31 28 24 25 22 19 20 9 2 3 2 6 11 10 8 7 7 6 3 3 4
28 25 30 33 29 28 24 27 23 18 15 10 10 11 13 15 17 21 21 19 22 21 24 25 24 26 26 22 19 24 8 5 3 2 6 10 11 11 8 7 7 4 3
29 24 26 29 30 25 21 19 22 20 11 11 13 15 15 14 14 17 16 16 17 23 27 27 24 25 28 25 25 11 11 19 12 4 3 6 12 14 16 13 12 8 6
29 25 20 23 25 26 22 14 15 7 9 14 17 19 21 17 14 16 17 18 21 23 30 32 27 27 26 23 26 28 28 9 10 6 3 5 6 10 13 13 14 12 9
Wind_Direction
173 168 163 157 151 144 141 141 141 150 149 149 147 143 143 143 141 140 138 138 136 132 124 118 114 112 113 111 107 102 97 94 96 94 89 109 110 119 116 117 113 107 110
166 167 164 159 153 147 142 142 145 147 151 153 151 148 147 145 143 141 140 136 133 130 127 122 118 116 116 113 111 104 98 92 87 88 88 105 98 117 122 115 110 105 108
165 166 165 161 156 151 146 143 144 150 153 154 153 152 149 147 144 142 138 134 131 131 130 129 126 121 120 120 117 110 99 90 82 76 73 90 116 125 126 109 106 106 110
166 168 166 164 159 154 150 147 144 148 151 152 153 153 150 147 146 145 141 137 133 134 134 134 131 126 125 126 121 111 100 83 69 59 79 88 112 134 130 111 115 109 110
166 170 168 166 164 158 154 151 147 149 150 152 151 152 151 149 149 146 143 138 137 138 139 141 141 137 137 135 127 114 98 72 55 35 197 177 134 152 152 135 122 108 112
167 170 170 169 169 163 159 155 150 150 153 154 154 154 154 151 150 147 144 142 143 143 145 147 150 149 148 146 144 132 101 66 43 20 93 174 166 185 175 210 192 120 123
169 170 172 173 172 170 164 159 154 151 155 157 158 156 157 154 152 151 151 149 151 152 153 153 157 159 160 162 167 169 155 48 30 31 63 183 205 251 241 243 247 224 185
170 171 174 174 175 174 170 164 160 157 157 162 165 162 162 158 155 156 157 156 158 164 162 162 163 165 169 176 181 192 227 263 269 298 344 217 224 255 262 258 259 263 258
168 169 171 173 175 178 178 171 169 166 163 164 171 171 169 168 165 164 164 163 166 177 176 178 176 179 182 191 201 212 242 263 283 298 303 294 246 252 260 268 259 268 269
162 168 170 171 176 180 181 177 176 174 171 169 174 179 184 183 184 179 179 174 179 188 196 198 205 210 210 216 224 242 257 272 292 308 306 289 271 272 267 258 258 264 272
147 156 168 153 164 177 180 179 180 180 179 176 181 187 196 200 198 197 194 194 194 205 208 213 225 232 239 242 245 255 268 279 290 304 306 287 281 286 281 271 257 259 269
139 150 170 161 160 170 175 178 181 184 187 188 193 198 204 214 214 211 208 210 212 216 222 231 243 254 259 261 261 268 273 279 294 314 324 306 296 305 299 278 265 254 265
152 158 169 172 174 174 179 183 183 191 195 198 204 206 214 220 224 224 222 221 224 229 232 239 250 258 265 272 274 273 280 266 289 299 303 304 307 310 309 298 299 281 277
161 167 172 180 181 179 183 188 188 193 199 205 209 212 216 223 225 227 231 232 236 239 244 249 257 266 269 272 272 278 279 276 287 298 300 303 307 309 310 308 295 289 284
152 171 182 185 187 186 187 191 196 200 207 210 213 216 219 224 229 231 232 234 241 245 249 253 262 274 279 276 274 274 275 282 289 293 298 302 305 301 291 293 291 284 283
155 162 180 196 201 200 201 202 208 213 216 216 218 222 224 227 231 232 234 236 242 244 254 267 278 285 286 285 283 287 281 285 286 289 286 294 306 310 303 290 293 290 288
161 163 176 192 200 208 211 214 212 220 225 223 226 226 230 234 234 237 238 239 241 252 260 265 275 282 286 284 280 296 290 272 271 272 264 281 294 301 304 307 309 296 290
169 173 180 195 200 208 219 218 214 218 227 229 226 228 232 236 235 233 241 239 243 252 262 265 270 277 278 276 272 261 283 270 257 244 245 256 280 300 317 340 326 313 317
191 184 184 198 198 211 225 222 223 211 226 228 219 215 228 241 244 239 241 246 245 254 261 271 268 270 273 270 269 268 270 249 248 241 235 246 266 298 331 0 2 2 341
205 204 209 205 207 205 223 223 230 219 226 243 235 223 230 239 245 249 253 256 254 256 260 261 257 261 260 264 270 271 259 254 253 231 226 233 249 291 315 337 356 339 343
217 218 211 210 207 211 225 229 230 224 230 244 244 242 245 246 247 247 250 256 256 256 260 257 255 256 259 264 271 278 257 258 242 233 235 228 235 268 308 329 342 356 349
217 225 230 229 234 235 238 232 226 231 235 239 244 251 250 254 258 258 254 254 257 259 255 253 257 257 264 263 240 232 269 247 236 236 221 235 251 284 277 311 339 8 14
214 224 228 234 238 236 236 229 225 219 224 228 241 255 267 259 264 256 255 264 269 267 262 255 260 262 261 269 239 223 157 239 295 207 237 225 230 258 258 287 289 345 354
228 226 229 229 234 232 224 217 218 228 235 242 259 266 273 269 260 247 245 253 249 257 265 264 265 268 274 255 258 234 237 294 232 281 232 229 234 243 253 265 264 265 311
237 231 236 239 240 234 228 239 239 242 264 285 300 299 297 292 275 272 271 270 275 272 272 273 261 267 268 271 273 255 266 228 229 186 234 236 234 240 237 243 245 253 269
236 241 237 239 239 239 240 230 228 245 295 316 317 298 295 303 307 301 303 290 279 273 273 273 270 269 264 263 259 259 226 217 203 194 208 216 224 250 238 240 230 243 250